Temp
-9 -9 -9 -9 -9 -9 -9 -9 -9 -9 -9 -9 -9 -9 -9 -10 -10 -10 -10 -11 -11 -11 -11 -11 -11 -12 -12 -12 -13 -13 -14 -14 -14 -14 -14 -13 -13 -13 -13 -13 -13 -13 -13
-10 -9 -9 -9 -9 -9 -9 -9 -9 -9 -9 -10 -10 -10 -10 -10 -11 -11 -11 -11 -11 -11 -11 -12 -12 -13 -13 -13 -14 -14 -14 -14 -14 -14 -14 -13 -13 -13 -13 -14 -14 -14 -14
-10 -10 -9 -10 -9 -10 -10 -10 -10 -10 -10 -10 -10 -10 -10 -10 -11 -11 -11 -12 -12 -12 -12 -12 -13 -13 -13 -14 -14 -14 -14 -14 -14 -14 -14 -14 -14 -14 -14 -14 -14 -14 -14
-10 -10 -10 -10 -9 -10 -10 -10 -10 -10 -10 -10 -10 -10 -11 -11 -12 -12 -12 -12 -12 -12 -12 -13 -13 -13 -14 -14 -14 -15 -14 -14 -14 -14 -14 -14 -14 -14 -14 -14 -14 -14 -14
-11 -10 -10 -10 -10 -10 -10 -10 -10 -10 -10 -10 -10 -10 -11 -11 -12 -12 -12 -13 -13 -13 -13 -13 -14 -14 -14 -14 -15 -15 -15 -15 -15 -15 -15 -14 -14 -14 -14 -14 -14 -14 -14
-11 -11 -10 -10 -10 -10 -10 -10 -10 -10 -10 -11 -11 -11 -11 -12 -12 -12 -13 -13 -13 -13 -14 -14 -14 -14 -14 -15 -15 -15 -15 -15 -15 -15 -15 -15 -15 -14 -14 -14 -14 -14 -14
-11 -11 -11 -10 -10 -11 -11 -10 -11 -11 -11 -11 -11 -11 -11 -12 -12 -13 -13 -13 -13 -14 -14 -14 -14 -15 -15 -15 -15 -15 -15 -15 -15 -15 -15 -15 -15 -15 -14 -14 -14 -14 -14
-11 -11 -11 -11 -11 -11 -11 -11 -11 -11 -11 -11 -11 -12 -12 -12 -13 -13 -13 -14 -14 -14 -14 -15 -15 -15 -15 -15 -15 -15 -15 -15 -15 -15 -15 -15 -15 -15 -14 -14 -14 -14 -14
-11 -11 -11 -11 -11 -11 -11 -11 -11 -11 -11 -11 -12 -12 -12 -12 -13 -13 -14 -14 -14 -14 -15 -15 -15 -15 -15 -15 -15 -15 -15 -15 -15 -15 -15 -15 -15 -15 -15 -14 -14 -14 -14
-12 -12 -11 -11 -11 -11 -11 -11 -11 -11 -12 -12 -12 -12 -12 -13 -13 -13 -14 -14 -14 -15 -15 -15 -15 -15 -15 -15 -15 -15 -15 -15 -15 -15 -15 -15 -15 -15 -15 -15 -15 -14 -14
-12 -12 -12 -12 -12 -12 -12 -12 -12 -12 -12 -12 -12 -12 -13 -13 -13 -14 -14 -14 -15 -15 -15 -15 -15 -15 -15 -15 -15 -15 -15 -15 -15 -15 -15 -15 -15 -15 -15 -15 -15 -15 -15
-12 -12 -12 -12 -12 -12 -12 -12 -12 -12 -12 -12 -12 -13 -13 -13 -13 -14 -14 -14 -15 -15 -15 -15 -15 -15 -15 -15 -15 -16 -16 -16 -16 -15 -15 -15 -15 -15 -15 -15 -15 -15 -15
-13 -13 -13 -13 -12 -12 -12 -12 -13 -13 -13 -13 -13 -13 -14 -14 -14 -14 -14 -14 -14 -15 -15 -15 -15 -15 -16 -15 -16 -16 -16 -16 -16 -16 -15 -15 -15 -15 -15 -15 -15 -15 -15
-13 -13 -13 -13 -12 -12 -13 -13 -13 -13 -13 -14 -14 -14 -14 -14 -14 -14 -14 -14 -14 -15 -15 -15 -15 -15 -15 -16 -16 -16 -16 -16 -16 -16 -15 -15 -15 -15 -15 -15 -15 -15 -15
-13 -13 -13 -13 -13 -13 -13 -13 -13 -14 -14 -14 -14 -14 -14 -14 -14 -14 -15 -15 -15 -15 -16 -16 -15 -15 -15 -16 -16 -16 -16 -16 -16 -16 -16 -16 -15 -15 -15 -15 -15 -16 -16
-13 -13 -13 -13 -14 -13 -13 -13 -14 -14 -14 -14 -14 -14 -14 -14 -14 -15 -14 -15 -15 -15 -15 -16 -16 -15 -15 -15 -15 -15 -15 -15 -16 -16 -16 -16 -16 -16 -16 -16 -16 -16 -16
-13 -13 -13 -14 -13 -14 -13 -13 -13 -14 -14 -14 -14 -14 -14 -13 -14 -14 -15 -15 -15 -15 -15 -16 -16 -16 -16 -16 -16 -15 -16 -16 -16 -16 -16 -16 -16 -16 -16 -16 -16 -16 -16
-13 -14 -14 -14 -13 -14 -14 -13 -13 -14 -14 -14 -14 -14 -14 -14 -14 -15 -15 -15 -15 -16 -15 -15 -16 -16 -16 -16 -16 -16 -16 -16 -17 -17 -17 -17 -17 -17 -17 -17 -17 -17 -17
-13 -14 -14 -14 -14 -14 -13 -14 -14 -14 -14 -14 -14 -14 -14 -14 -15 -15 -15 -16 -16 -16 -15 -15 -15 -16 -16 -16 -16 -16 -16 -16 -16 -17 -17 -17 -17 -18 -18 -18 -18 -17 -18
-14 -14 -14 -14 -14 -14 -14 -14 -14 -14 -14 -14 -14 -14 -14 -14 -15 -15 -15 -15 -15 -15 -16 -15 -15 -15 -15 -16 -16 -16 -16 -17 -17 -17 -17 -17 -18 -18 -18 -18 -18 -18 -18
-14 -14 -14 -14 -14 -14 -14 -14 -14 -14 -14 -14 -14 -14 -15 -15 -15 -16 -16 -16 -16 -16 -16 -16 -16 -16 -16 -16 -16 -16 -17 -17 -17 -17 -18 -19 -18 -18 -18 -18 -18 -18 -19
-15 -15 -14 -15 -14 -15 -15 -14 -14 -14 -15 -15 -15 -15 -16 -16 -16 -16 -16 -16 -16 -16 -16 -16 -16 -16 -16 -16 -16 -16 -16 -17 -17 -18 -18 -18 -18 -18 -19 -19 -19 -19 -19
-15 -15 -15 -15 -15 -15 -15 -15 -15 -15 -15 -15 -16 -16 -16 -16 -16 -16 -16 -16 -16 -16 -16 -16 -16 -16 -16 -16 -17 -17 -17 -17 -18 -18 -18 -18 -19 -19 -19 -19 -20 -20 -20
-16 -15 -15 -15 -15 -15 -15 -15 -15 -15 -16 -16 -16 -16 -16 -16 -16 -16 -16 -17 -17 -17 -17 -16 -16 -17 -17 -17 -17 -17 -17 -18 -18 -17 -18 -18 -18 -19 -19 -20 -20 -20 -21
-16 -16 -15 -15 -15 -15 -16 -16 -16 -16 -16 -16 -16 -16 -16 -17 -17 -17 -17 -17 -17 -17 -18 -17 -17 -17 -17 -17 -17 -18 -17 -17 -18 -18 -19 -19 -19 -19 -19 -20 -21 -21 -21
-16 -16 -16 -16 -16 -16 -16 -16 -16 -16 -16 -17 -17 -17 -17 -17 -17 -16 -16 -17 -17 -18 -18 -18 -18 -18 -18 -19 -19 -19 -18 -19 -19 -20 -20 -19 -20 -20 -20 -20 -21 -21 -22
Height
5829 5832 5836 5838 5840 5842 5844 5846 5848 5851 5851 5851 5853 5854 5855 5856 5855 5856 5856 5856 5856 5855 5853 5851 5850 5848 5846 5845 5843 5841 5839 5837 5836 5834 5832 5829 5826 5823 5820 5817 5814 5813 5812
5825 5829 5832 5834 5837 5839 5841 5842 5844 5847 5848 5848 5848 5849 5850 5851 5853 5853 5853 5853 5852 5851 5850 5848 5847 5845 5843 5841 5840 5838 5837 5836 5834 5831 5828 5826 5823 5820 5817 5814 5811 5809 5807
5820 5824 5827 5832 5833 5836 5838 5840 5841 5843 5845 5845 5845 5845 5846 5847 5849 5850 5849 5849 5849 5847 5847 5846 5844 5842 5841 5839 5837 5836 5834 5833 5830 5828 5824 5821 5818 5815 5813 5810 5808 5805 5804
5816 5819 5822 5826 5828 5831 5834 5835 5837 5838 5840 5842 5842 5842 5842 5842 5844 5845 5845 5844 5845 5845 5843 5842 5840 5838 5837 5836 5834 5833 5831 5829 5826 5823 5821 5817 5814 5811 5807 5806 5804 5802 5800
5810 5815 5818 5821 5823 5826 5828 5830 5832 5834 5836 5836 5837 5837 5837 5839 5839 5840 5841 5840 5840 5840 5839 5838 5836 5835 5833 5832 5831 5830 5828 5825 5823 5820 5817 5813 5810 5806 5803 5801 5799 5799 5797
5803 5807 5812 5816 5818 5820 5823 5825 5827 5830 5831 5832 5832 5832 5832 5833 5835 5835 5836 5837 5836 5836 5835 5834 5832 5831 5830 5829 5827 5826 5824 5822 5819 5816 5813 5810 5807 5803 5800 5798 5797 5795 5794
5798 5801 5806 5809 5812 5814 5817 5820 5822 5824 5825 5826 5826 5827 5828 5829 5830 5831 5831 5832 5832 5832 5831 5830 5829 5827 5825 5824 5823 5821 5820 5817 5815 5812 5809 5805 5803 5799 5796 5794 5793 5791 5790
5792 5797 5799 5802 5805 5809 5812 5814 5817 5817 5819 5820 5821 5822 5823 5824 5825 5825 5826 5827 5826 5827 5826 5825 5824 5823 5821 5819 5817 5816 5814 5812 5810 5807 5805 5801 5798 5795 5792 5790 5788 5786 5784
5786 5788 5792 5796 5799 5802 5805 5807 5809 5810 5813 5814 5815 5816 5816 5818 5819 5820 5820 5821 5821 5821 5820 5819 5818 5817 5815 5814 5812 5810 5809 5806 5804 5801 5799 5795 5793 5791 5788 5785 5783 5781 5778
5779 5782 5785 5789 5792 5795 5798 5799 5802 5804 5806 5807 5809 5809 5810 5812 5813 5813 5814 5815 5815 5815 5814 5813 5812 5810 5809 5807 5805 5803 5802 5800 5797 5795 5793 5789 5787 5784 5781 5779 5776 5773 5769
5772 5776 5779 5782 5785 5787 5790 5792 5795 5797 5799 5800 5802 5803 5804 5805 5805 5807 5807 5807 5808 5807 5808 5807 5805 5804 5802 5800 5798 5796 5794 5792 5790 5788 5785 5783 5780 5777 5774 5771 5768 5765 5761
5766 5770 5773 5776 5778 5780 5783 5784 5786 5789 5791 5794 5795 5796 5797 5799 5799 5800 5800 5800 5801 5800 5800 5799 5797 5796 5794 5792 5790 5788 5786 5784 5782 5779 5777 5774 5771 5768 5765 5762 5758 5755 5751
5760 5763 5766 5768 5770 5773 5775 5778 5780 5782 5784 5786 5788 5788 5789 5790 5791 5791 5792 5792 5793 5793 5792 5791 5789 5787 5785 5784 5782 5779 5778 5776 5773 5770 5768 5765 5761 5758 5756 5752 5749 5746 5742
5753 5755 5758 5760 5763 5765 5768 5771 5773 5774 5776 5777 5779 5780 5781 5782 5782 5784 5784 5785 5784 5784 5784 5781 5779 5778 5776 5775 5773 5771 5769 5766 5763 5761 5758 5755 5750 5748 5745 5741 5738 5734 5730
5745 5748 5750 5754 5756 5758 5761 5763 5765 5767 5768 5769 5770 5771 5773 5773 5774 5775 5776 5776 5776 5776 5776 5773 5771 5767 5766 5764 5761 5760 5758 5755 5752 5750 5747 5744 5740 5737 5732 5729 5726 5722 5718
5737 5740 5743 5746 5748 5751 5753 5755 5756 5757 5759 5760 5762 5764 5764 5765 5766 5766 5766 5767 5766 5766 5767 5764 5762 5760 5757 5753 5750 5749 5747 5744 5742 5739 5734 5731 5728 5724 5720 5717 5713 5709 5705
5729 5732 5735 5738 5741 5743 5745 5746 5747 5746 5749 5752 5754 5754 5755 5757 5757 5758 5757 5757 5757 5756 5756 5756 5753 5751 5749 5746 5742 5739 5737 5734 5730 5727 5722 5718 5716 5712 5708 5704 5700 5697 5692
5721 5723 5727 5731 5733 5735 5736 5736 5736 5738 5741 5742 5743 5744 5745 5747 5748 5748 5748 5747 5747 5746 5745 5745 5743 5740 5738 5735 5733 5730 5727 5725 5719 5716 5713 5708 5703 5699 5696 5692 5688 5683 5678
5712 5715 5718 5721 5723 5726 5727 5726 5729 5731 5732 5734 5734 5734 5735 5737 5739 5737 5737 5738 5738 5737 5735 5733 5733 5730 5728 5725 5722 5718 5716 5713 5710 5706 5703 5697 5693 5689 5684 5680 5676 5671 5665
5702 5706 5710 5712 5715 5717 5718 5720 5721 5722 5723 5724 5725 5726 5727 5728 5728 5727 5728 5729 5727 5726 5725 5723 5721 5717 5714 5713 5711 5709 5705 5701 5696 5693 5688 5683 5680 5676 5671 5665 5662 5655 5648
5694 5698 5701 5704 5706 5708 5710 5711 5713 5714 5714 5716 5718 5717 5719 5720 5719 5719 5718 5718 5717 5716 5714 5713 5710 5707 5703 5701 5698 5695 5694 5691 5684 5680 5675 5669 5667 5661 5655 5649 5644 5637 5629
5685 5689 5693 5696 5697 5699 5702 5702 5704 5704 5705 5707 5708 5709 5710 5710 5711 5710 5709 5708 5707 5705 5703 5701 5698 5695 5692 5691 5686 5681 5678 5674 5669 5664 5663 5654 5651 5645 5638 5631 5624 5618 5611
5675 5679 5682 5685 5688 5690 5691 5693 5695 5696 5697 5698 5698 5700 5700 5700 5699 5698 5698 5696 5694 5692 5689 5686 5683 5680 5676 5674 5668 5665 5663 5659 5655 5652 5649 5643 5637 5631 5623 5614 5607 5599 5592
5666 5669 5672 5675 5677 5680 5682 5684 5684 5686 5687 5687 5688 5688 5687 5687 5688 5686 5684 5683 5681 5679 5676 5673 5670 5665 5662 5659 5657 5649 5647 5643 5638 5635 5631 5628 5622 5617 5607 5597 5588 5581 5574
5654 5658 5662 5665 5667 5670 5671 5673 5674 5675 5675 5676 5676 5676 5676 5676 5675 5673 5672 5669 5666 5664 5662 5658 5654 5651 5648 5646 5641 5636 5631 5626 5621 5616 5614 5608 5603 5599 5593 5583 5571 5563 5556
5643 5647 5650 5653 5655 5658 5660 5661 5661 5661 5661 5662 5663 5663 5663 5662 5661 5658 5655 5651 5648 5645 5645 5643 5640 5637 5633 5629 5624 5619 5615 5609 5604 5597 5594 5589 5582 5576 5576 5569 5558 5547 5541
Wind_Speed
28 26 26 25 24 24 23 23 23 22 18 17 18 18 19 20 20 18 18 19 20 22 20 17 17 18 19 19 19 19 19 20 21 23 25 27 28 28 28 26 23 19 15
28 27 26 25 25 24 25 23 24 23 22 22 21 20 20 20 21 20 20 21 21 23 20 18 19 19 18 18 18 18 19 21 24 26 28 30 31 31 30 27 23 18 15
30 29 27 26 25 24 23 24 23 25 27 24 23 22 21 21 21 21 21 21 22 22 20 20 20 20 20 19 18 18 20 24 27 29 30 30 29 29 28 26 22 18 17
30 29 27 27 26 25 25 25 25 25 25 25 24 24 24 23 22 23 22 22 23 22 20 21 21 21 21 19 18 19 22 25 28 29 30 30 29 28 25 24 21 18 18
34 31 31 28 29 28 27 26 27 26 28 27 26 27 26 27 25 25 24 23 23 22 21 22 21 22 21 20 20 21 22 25 27 28 29 29 29 27 25 22 21 20 21
37 35 33 30 30 29 29 28 27 28 29 29 28 28 28 26 27 25 26 26 24 23 21 22 23 23 22 22 21 22 24 25 26 28 28 28 28 27 25 23 22 22 24
39 36 34 33 32 32 30 29 28 30 31 31 29 28 27 27 28 27 27 27 26 25 24 24 24 25 25 25 24 24 25 27 27 27 27 27 28 27 25 23 23 25 28
38 36 38 37 36 34 31 31 32 33 32 32 30 29 28 28 28 30 27 27 26 25 26 26 26 27 26 27 28 28 27 28 29 29 29 28 28 28 27 27 27 28 31
34 36 38 39 38 36 35 34 34 34 31 31 29 28 28 28 29 29 28 28 27 27 28 28 28 29 29 30 30 31 31 31 31 30 31 31 31 30 30 31 32 33 35
32 33 34 34 36 35 35 35 35 33 31 31 30 29 27 27 28 30 29 30 29 28 29 30 31 32 32 33 33 34 35 35 35 34 34 34 34 34 33 33 35 36 38
35 34 34 34 34 34 34 33 34 32 30 30 30 28 28 28 29 30 30 32 30 31 30 32 33 34 35 35 35 35 36 38 39 39 38 38 38 38 38 38 39 40 42
35 34 34 36 36 36 35 36 34 31 30 30 29 29 30 30 30 30 31 32 31 33 33 33 34 35 37 38 38 38 38 40 41 42 43 42 43 43 43 42 43 44 46
35 33 34 34 34 36 36 35 34 32 32 31 30 31 32 32 32 32 32 33 32 34 35 35 37 39 40 40 41 42 42 42 43 43 43 44 45 46 46 47 48 49 50
37 36 36 36 36 36 36 35 34 33 33 33 33 34 36 35 34 33 34 34 36 37 38 40 42 43 44 43 45 46 46 45 45 46 44 46 47 47 48 49 51 52 54
39 38 38 37 36 35 35 35 36 36 37 37 36 39 37 33 34 36 37 39 40 41 41 43 45 46 46 46 47 48 48 47 46 45 47 48 48 49 51 52 54 56 58
38 39 38 37 34 34 34 35 37 39 40 40 40 40 36 35 37 40 40 42 43 43 42 43 44 44 46 47 47 47 46 46 47 47 49 51 52 55 57 58 58 58 58
40 38 35 34 34 33 37 38 40 44 39 37 39 43 41 41 41 43 46 43 43 43 40 42 43 45 46 47 49 49 48 49 50 48 48 50 52 56 59 59 58 60 61
38 36 35 35 34 38 39 42 37 36 35 34 38 36 39 40 38 39 40 41 42 41 39 41 43 45 46 47 49 49 49 51 53 52 53 53 54 52 56 57 59 61 64
40 39 37 37 37 34 34 26 22 23 26 33 31 33 32 36 38 36 38 38 37 40 41 41 42 45 47 48 47 50 45 49 50 54 52 48 51 52 56 59 61 61 64
42 39 38 40 38 34 31 30 27 29 31 30 30 32 32 34 35 36 36 36 38 40 42 42 45 44 50 49 49 47 48 52 51 52 49 52 55 57 59 60 63 65 69
39 38 38 37 39 39 34 36 34 32 29 29 33 31 33 36 35 35 36 40 42 44 46 46 48 51 50 52 49 50 50 59 58 53 53 54 56 59 62 65 68 71 72
38 37 38 38 37 36 36 35 36 36 32 34 31 33 34 35 37 39 41 44 48 49 50 52 53 54 55 58 62 62 62 59 55 53 56 59 61 63 68 73 73 75 75
41 41 39 39 37 36 36 37 38 36 35 39 38 38 40 41 43 45 48 50 51 50 52 51 54 56 56 58 53 56 58 63 56 54 57 61 65 71 74 74 74 76 76
42 41 41 41 41 40 41 41 42 42 44 47 48 49 46 46 49 50 51 53 54 54 52 53 54 48 58 55 52 50 52 55 66 72 70 73 75 73 73 74 75 76 75
45 47 49 50 47 46 46 45 45 47 48 49 50 51 51 51 54 53 56 57 58 58 55 57 61 59 63 55 63 67 64 70 78 79 78 76 75 77 77 75 75 75 74
50 49 46 45 45 46 48 48 50 53 53 53 54 55 55 51 54 57 56 60 65 59 59 59 60 61 64 67 70 74 77 78 77 76 77 77 77 76 73 71 73 74 73
Wind_Direction
232 233 238 240 241 240 244 240 243 244 246 255 266 273 276 277 276 278 283 293 301 306 306 300 301 303 306 307 308 308 306 309 312 313 313 313 312 314 316 315 309 300 286
232 236 239 240 245 244 245 245 242 245 254 263 264 267 270 275 276 278 284 294 299 305 302 301 304 306 307 306 308 307 310 315 316 316 315 314 312 311 312 313 306 293 274
234 236 238 242 246 248 247 246 247 252 261 263 267 271 273 269 268 274 283 288 295 299 297 299 304 308 307 307 307 310 315 318 318 319 318 316 314 311 308 308 301 289 271
235 237 239 240 243 248 247 248 252 254 260 266 270 272 271 266 267 274 279 283 291 292 293 297 303 306 305 305 303 309 315 318 319 319 319 320 318 312 307 303 296 283 271
237 238 242 242 247 247 245 249 253 257 263 266 270 271 267 268 266 272 276 277 283 283 287 292 300 303 303 300 300 306 311 316 318 320 321 323 322 319 310 300 293 283 276
236 238 241 246 246 243 245 251 253 259 267 269 269 268 267 266 265 271 273 276 279 280 284 290 296 299 298 294 294 300 307 312 315 317 320 321 322 322 317 305 296 288 285
237 240 240 243 244 243 248 254 257 261 266 268 265 266 267 268 269 270 271 274 276 280 284 288 292 296 297 293 290 295 303 306 311 314 317 320 318 317 315 308 297 291 290
240 241 243 244 246 249 252 256 261 263 265 266 265 266 266 266 266 267 269 271 274 277 281 287 291 294 296 295 290 291 296 301 306 310 312 314 313 313 311 306 300 294 292
239 241 243 247 251 253 255 257 259 261 264 266 265 264 262 263 264 268 266 267 273 275 278 285 290 291 292 296 291 288 291 296 301 305 307 309 310 310 310 307 304 300 297
238 242 245 248 251 253 255 256 258 261 264 265 266 265 263 264 267 267 265 266 271 273 278 283 287 289 290 291 294 290 288 291 296 300 302 305 307 308 307 307 306 304 302
236 239 242 246 250 253 254 257 259 260 262 263 263 264 266 268 269 266 263 267 270 273 278 282 285 287 287 289 291 294 291 288 291 294 297 301 304 306 306 306 305 305 303
239 242 242 245 249 252 254 257 259 261 261 261 263 261 264 268 272 266 263 265 267 275 279 281 283 284 284 285 287 289 292 294 294 296 297 299 300 300 301 303 303 302 301
237 240 242 245 248 252 255 257 260 263 264 265 262 264 266 266 266 264 263 266 271 271 276 279 281 283 284 286 287 289 293 295 295 294 294 295 296 297 299 299 299 301 301
242 243 245 250 251 253 255 257 260 262 262 263 264 263 263 265 265 264 267 269 271 275 277 280 283 283 285 287 288 289 291 293 293 294 296 296 295 295 296 298 300 302 302
244 246 248 250 252 255 259 260 260 260 261 258 262 264 267 264 266 266 267 270 273 274 275 278 280 286 287 288 288 289 291 294 294 295 296 295 296 298 298 298 300 302 302
243 247 249 251 253 255 256 258 256 255 256 258 261 267 267 267 271 268 269 271 274 277 279 279 284 285 286 289 289 291 292 293 294 297 298 298 298 298 300 301 299 302 303
242 246 249 253 254 252 255 261 264 256 253 257 265 267 264 269 271 272 271 273 275 279 279 280 281 282 286 288 289 290 293 293 293 294 294 299 299 299 299 301 301 301 302
243 246 251 253 249 262 267 266 267 263 256 266 267 262 274 274 280 277 279 279 279 280 280 285 287 287 288 288 288 288 289 291 284 282 285 296 295 296 297 298 301 302 304
240 244 250 252 253 261 264 276 278 277 276 260 266 265 258 273 272 275 276 277 278 281 284 284 288 290 290 287 297 287 284 288 288 289 288 291 295 298 298 300 300 300 300
238 244 250 252 253 260 270 274 268 263 264 263 267 262 262 263 269 274 275 277 280 282 284 284 289 283 291 286 288 281 289 294 290 291 293 297 299 298 298 298 300 299 299
244 248 251 255 258 261 265 270 270 268 266 258 262 272 268 268 270 276 279 281 282 285 286 287 288 288 298 280 291 288 291 303 291 286 294 296 297 299 299 299 301 301 301
246 249 253 254 257 260 262 265 267 266 269 260 268 267 266 269 273 277 279 282 285 286 288 290 288 293 294 295 295 292 295 296 289 288 297 297 300 299 300 302 302 302 303
244 246 250 253 257 261 263 263 264 265 259 265 275 275 278 277 278 279 282 284 282 285 286 290 291 293 293 296 288 293 292 289 284 292 295 300 300 301 300 300 301 302 304
244 248 253 258 260 261 262 262 265 265 265 267 273 275 275 276 279 282 282 282 284 286 287 290 289 283 290 293 280 296 281 277 279 289 296 300 303 300 300 301 301 302 302
243 249 259 259 260 264 268 270 271 270 274 275 274 274 277 280 280 282 284 285 287 283 282 280 287 291 291 287 290 295 285 281 295 300 301 300 299 299 300 301 300 300 301
252 254 257 258 260 262 266 270 272 274 273 273 275 277 280 280 285 285 288 283 285 275 282 283 283 290 295 296 295 297 294 298 298 298 299 298 298 299 299 299 297 298 298